Regional Weather Roundup
Issued by NWS

Home | Current Version | Previous Version | Graphics & Text | Print | Product List | Glossary On
Versions: 1 2 3 4 5 6 7 8 9 10 11 12 13 14 15 16 17 18 19 20 21 22 23 24 25 26 27 28 29 30 31 32 33 34 35 36 37 38 39 40 41 42 43 44 45 46 47 48 49 50
062
ASUS44 KJAN 311310
RWRMS

MISSISSIPPI HOURLY WEATHER ROUNDUP
NATIONAL WEATHER SERVICE JACKSON MS
800 AM CDT THU JUL 31 2014

NOTE: "FAIR: INDICATES FEW OR NO CLOUDS BELOW 12,000 FEET WITH NO
SIGNIFICANT WEATHER AND/OR OBSTRUCTIONS TO VISIBILITY.

MSZ001>002-007>008-010>013-018>021-025>028-034>036-311400-
NORTHWEST MISSISSIPPI

CITY           SKY/WX    TMP DP  RH WIND       PRES   REMARKS
CLARKSDALE     PTSUNNY   68  68 100 CALM      30.11
CLEVELAND      CLOUDY    69  68  96 CALM      30.08S
GREENWOOD      CLOUDY    70  67  90 CALM      30.09R
GREENVILLE     LGT RAIN  71  68  90 NE3       30.08F FOG
GRENADA        PTSUNNY   68  64  88 N6        30.10R
OLIVE BRANCH   CLOUDY    70  70 100 CALM      30.10R
OXFORD         FAIR      68  64  88 CALM      30.11R
TUNICA         CLOUDY    68  64  88 NW3       30.11S
$$

MSZ003>006-009-014>017-022>024-029>033-037>039-311400-
NORTHEAST MISSISSIPPI

CITY           SKY/WX    TMP DP  RH WIND       PRES   REMARKS
BELMONT        CLOUDY    67  64  89 CALM      30.09S
COLUMBUS AFB   CLOUDY    69  64  84 N1        30.08R
CORINTH        CLOUDY    68  64  88 CALM      30.10R
GOLDN TRIANGLE CLOUDY    70  63  78 N5        30.08R
STARKVILLE     CLOUDY    68  64  88 CALM      30.08R
TUPELO         CLOUDY    71  64  78 NE5       30.09R
$$

MSZ040-058-311400-
CENTRAL MISSISSIPPI

CITY           SKY/WX    TMP DP  RH WIND       PRES   REMARKS
JACKSON INTL   CLOUDY    72  64  76 CALM      30.08R
JACKSON HAWKNS CLOUDY    71  63  75 NW3       30.09R
MERIDIAN KEY   PTSUNNY   69  62  78 N5        30.06R
MERIDIAN NAS   CLOUDY    69  62  78 CALM      30.07R
RAYMOND        FAIR      68  64  88 CALM      30.09R
VICKSBURG      LGT RAIN  71  66  84 E3        30.08S
$$

MSZ059>079-311400-
SOUTH MISSISSIPPI

CITY           SKY/WX    TMP DP  RH WIND       PRES   REMARKS
BROOKHAVEN     FAIR      70  64  83 CALM      30.10R
COLUMBIA       FAIR      70  66  88 CALM      30.06R
HATTIESBURG    CLOUDY    69  64  84 CALM      30.07R
MCCOMB         CLOUDY    72  60  66 NE5       30.07R
NATCHEZ        CLOUDY    70  63  78 NE3       30.08R
PINE BELT      CLOUDY    68  61  77 CALM      30.08R
$$

MSZ080>082-311400-
COASTAL MISSISSIPPI

CITY           SKY/WX    TMP DP  RH WIND       PRES   REMARKS
BAY ST LOUIS   MOSUNNY  N/A N/A N/A NE3       30.04R
BILOXI         PTSUNNY   72  62  69 VRB2      30.03R
PASCAGOULA     SUNNY     70  65  84 N3        30.03R
GULFPORT       MOSUNNY   75  61  61 NE7       30.03R
$$



USA.gov is the U.S. government's official web portal to all federal, state and local government web resources and services.